Monarch Pass, CO

11:42 PM MDT on August 18, 2017 (GMT -0600)
Monarch Pass

Weather History for KMYP - October, 2011

Change the Weather History Date:

Tuesday, October 11, 2011

  Actual Average (KALS) Record (KALS)
Temperature  
Mean Temperature 28 °F -  
Max Temperature 33 °F 64 °F 78 °F (1950)
Min Temperature 24 °F 26 °F -8 °F (1946)
Degree Days  
Heating Degree Days 36    
Moisture  
Dew Point 25 °F    
Average Humidity 87    
Maximum Humidity 100    
Minimum Humidity 69    
Precipitation  
Precipitation 0.00 in - - ()
Sea Level Pressure  
Sea Level Pressure 30.26 in    
Wind  
Wind Speed 32 mph (West)    
Max Wind Speed 48 mph    
Max Gust Speed 63 mph    
Visibility 6 miles    
Events Fog , Snow    
Averages and records for this station are not official NWS values.
T = Trace of Precipitation, MM = Missing Value Source: NWS Daily Summary

Daily Weather History Graph

Daily Weather History Graph

Search for Another Location

Airport or City:

Trip Planner

Search our weather history database for the weather conditions in past years. The results will help you decide how hot, cold, wet, or windy it might be!

Date:

Astronomy

Oct. 11, 2011 Rise Set
Actual Time 7:09 AM MDT 6:32 PM MDT
Civil Twilight 6:43 AM MDT 6:59 PM MDT
Nautical Twilight 6:12 AM MDT 7:29 PM MDT
Astronomical Twilight 5:41 AM MDT 8:00 PM MDT
Moon 6:06 PM MDT (10/11) 6:49 AM MDT (10/11)
Length of Visible Light 12h 16m
Length of Day
11h 23m
Full, 100% of the Moon is Illuminated
Oct 11
Full
Oct 11
Full
Oct 19
Last Quarter
Oct 26
New
Nov 2
First Quarter

Hourly Weather History & Observations

Time (MDT) Temp. Windchill Dew Point Humidity Pressure Visibility Wind Dir Wind Speed Gust Speed Precip Events Conditions
12:11 AM 28.4 °F 15.1 °F 23.0 °F 80% 30.29 in 10.0 mi WSW 20.7 mph 26.5 mph N/A   Clear
12:31 AM 28.4 °F 14.4 °F 23.0 °F 80% 30.29 in 10.0 mi WSW 23.0 mph 28.8 mph N/A   Clear
12:51 AM 28.4 °F 14.1 °F 23.0 °F 80% 30.27 in 10.0 mi WSW 24.2 mph 28.8 mph N/A   Clear
1:11 AM 26.6 °F 10.6 °F 21.2 °F 80% 30.27 in 10.0 mi WSW 28.8 mph - N/A   Clear
1:31 AM 26.6 °F 10.8 °F 21.2 °F 80% 30.26 in 10.0 mi WSW 27.6 mph - N/A   Clear
1:51 AM 26.6 °F 10.3 °F 21.2 °F 80% 30.26 in 10.0 mi WSW 29.9 mph 34.5 mph N/A   Clear
2:11 AM 26.6 °F 9.6 °F 23.0 °F 86% 30.25 in 10.0 mi West 33.4 mph 39.1 mph N/A   Clear
2:31 AM 26.6 °F 7.7 °F 23.0 °F 86% 30.24 in 10.0 mi West 43.7 mph - N/A   Scattered Clouds
2:51 AM 26.6 °F 7.1 °F 23.0 °F 86% 30.24 in 10.0 mi West 47.2 mph 50.6 mph N/A   Mostly Cloudy
3:11 AM 26.6 °F 6.9 °F 23.0 °F 86% 30.23 in 1.2 mi West 48.3 mph 63.3 mph N/A Snow Light Snow
3:51 AM 24.8 °F 5.3 °F 23.0 °F 93% 30.22 in 0.2 mi West 42.6 mph 51.8 mph N/A Snow Heavy Snow
4:11 AM 24.8 °F 6.2 °F 23.0 °F 93% 30.22 in 0.2 mi West 38.0 mph 46.0 mph N/A Snow Heavy Snow
4:31 AM 24.8 °F - 23.0 °F 93% 30.22 in 0.2 mi North - - N/A Snow Heavy Snow
4:51 AM 24.8 °F - 23.0 °F 93% 30.21 in 0.2 mi North - - N/A Snow Heavy Snow
5:31 AM 24.8 °F - 23.0 °F 93% 30.20 in 0.2 mi North - - N/A Snow Heavy Snow
6:11 AM 26.6 °F - 23.0 °F 86% 30.21 in 0.2 mi North - - N/A Snow Heavy Snow
6:31 AM 26.6 °F - 24.8 °F 93% 30.22 in 0.2 mi North - - N/A Snow Heavy Snow
6:51 AM 26.6 °F - 24.8 °F 93% 30.22 in 0.2 mi North - - N/A Snow Heavy Snow
7:11 AM 26.6 °F - 24.8 °F 93% 30.22 in 0.2 mi North - - N/A Snow Heavy Snow
7:31 AM 26.6 °F - 24.8 °F 93% 30.22 in 0.2 mi North - - N/A Snow Heavy Snow
7:51 AM 26.6 °F - 24.8 °F 93% 30.23 in 0.2 mi North - - N/A Snow Light Snow
8:11 AM 26.6 °F - 26.6 °F 100% 30.25 in 0.2 mi North - - N/A Snow Light Snow
8:31 AM 26.6 °F 10.8 °F 26.6 °F 100% 30.26 in 0.2 mi West 27.6 mph - N/A Snow Light Snow
8:51 AM 26.6 °F - 26.6 °F 100% 30.27 in 0.2 mi North - - N/A Fog Light Freezing Fog
9:11 AM 26.6 °F - 26.6 °F 100% 30.27 in 0.2 mi North - - N/A Snow Light Snow
9:31 AM 26.6 °F - 26.6 °F 100% 30.27 in 0.2 mi North - - N/A Snow Heavy Snow
9:51 AM 28.4 °F - 26.6 °F 93% 30.27 in 0.2 mi North - - N/A Snow Snow
10:11 AM 28.4 °F - 26.6 °F 93% 30.28 in 0.2 mi North - - N/A Snow Snow
10:31 AM 28.4 °F - 26.6 °F 93% 30.27 in 0.2 mi North - - N/A Snow Snow
10:51 AM 28.4 °F - 26.6 °F 93% 30.27 in 0.2 mi North - - N/A Snow Snow
11:11 AM 28.4 °F - 26.6 °F 93% 30.27 in 0.2 mi North - - N/A Snow Light Snow
11:31 AM 28.4 °F - 26.6 °F 93% 30.27 in 0.2 mi North - - N/A Snow Snow
12:11 PM 28.4 °F 13.3 °F 28.4 °F 100% 30.27 in 0.2 mi West 27.6 mph - N/A Snow Light Snow
12:31 PM 28.4 °F 13.0 °F 28.4 °F 100% 30.27 in 0.8 mi West 28.8 mph 41.4 mph N/A   Overcast
12:51 PM 30.2 °F 15.4 °F 28.4 °F 93% 30.27 in 7.0 mi West 28.8 mph 43.7 mph N/A   Overcast
1:11 PM 30.2 °F 14.1 °F 28.4 °F 93% 30.26 in 10.0 mi West 35.7 mph 43.7 mph N/A   Overcast
1:31 PM 30.2 °F 14.9 °F 28.4 °F 93% 30.26 in 10.0 mi West 31.1 mph 44.9 mph N/A   Overcast
1:51 PM 30.2 °F 14.1 °F 28.4 °F 93% 30.25 in 10.0 mi West 35.7 mph 44.9 mph N/A   Overcast
2:11 PM 30.2 °F 14.3 °F 28.4 °F 93% 30.26 in 10.0 mi West 34.5 mph 43.7 mph N/A   Overcast
2:30 PM 30.2 °F 14.7 °F 28.4 °F 93% 30.25 in 10.0 mi West 32.2 mph 47.2 mph N/A   Overcast
2:50 PM 30.2 °F 13.5 °F 26.6 °F 86% 30.25 in 10.0 mi West 39.1 mph 46.0 mph N/A   Overcast
3:10 PM 32.0 °F 16.2 °F 26.6 °F 80% 30.26 in 10.0 mi West 38.0 mph 50.6 mph N/A   Overcast
3:30 PM 32.0 °F 15.1 °F 24.8 °F 75% 30.25 in 10.0 mi West 44.9 mph 50.6 mph N/A   Overcast
3:50 PM 32.0 °F 16.0 °F 26.6 °F 80% 30.26 in 10.0 mi West 39.1 mph 44.9 mph N/A   Mostly Cloudy
4:10 PM 33.8 °F 18.1 °F 26.6 °F 75% 30.27 in 10.0 mi West 41.4 mph 48.3 mph N/A   Mostly Cloudy
4:30 PM 32.0 °F 15.4 °F 24.8 °F 75% 30.27 in 10.0 mi West 42.6 mph 50.6 mph N/A   Mostly Cloudy
4:50 PM 32.0 °F 16.5 °F 23.0 °F 69% 30.27 in 10.0 mi West 35.7 mph 49.5 mph N/A   Mostly Cloudy
5:10 PM 32.0 °F 16.7 °F 23.0 °F 69% 30.27 in 10.0 mi West 34.5 mph 42.6 mph N/A   Mostly Cloudy
5:30 PM 32.0 °F 16.2 °F 24.8 °F 75% 30.28 in 10.0 mi West 38.0 mph 47.2 mph N/A   Mostly Cloudy
5:50 PM 32.0 °F 17.0 °F 24.8 °F 75% 30.29 in 10.0 mi West 33.4 mph 42.6 mph N/A   Mostly Cloudy
6:10 PM 32.0 °F 17.2 °F 24.8 °F 75% 30.29 in 10.0 mi West 32.2 mph 38.0 mph N/A   Scattered Clouds
6:30 PM 32.0 °F 17.6 °F 24.8 °F 75% 30.30 in 10.0 mi West 29.9 mph 36.8 mph N/A   Scattered Clouds
6:50 PM 32.0 °F 18.1 °F 24.8 °F 75% 30.30 in 10.0 mi WNW 27.6 mph 42.6 mph N/A   Mostly Cloudy
7:10 PM 30.2 °F 13.1 °F 23.0 °F 75% 30.31 in 10.0 mi WNW 41.4 mph 47.2 mph N/A   Scattered Clouds
7:30 PM 30.2 °F 14.5 °F 24.8 °F 80% 30.31 in 10.0 mi West 33.4 mph 41.4 mph N/A   Mostly Cloudy
7:50 PM 30.2 °F 15.2 °F 24.8 °F 80% 30.32 in 10.0 mi West 29.9 mph 42.6 mph N/A   Mostly Cloudy
8:10 PM 30.2 °F 14.5 °F 24.8 °F 80% 30.32 in 10.0 mi West 33.4 mph 41.4 mph N/A   Overcast
8:30 PM 30.2 °F 14.9 °F 26.6 °F 86% 30.33 in 10.0 mi West 31.1 mph 39.1 mph N/A   Overcast
8:50 PM 30.2 °F 15.2 °F 26.6 °F 86% 30.34 in 10.0 mi West 29.9 mph 34.5 mph N/A   Overcast
9:30 PM 30.2 °F 14.5 °F 26.6 °F 86% 30.33 in 10.0 mi West 33.4 mph 40.3 mph N/A   Overcast
10:10 PM 30.2 °F 14.3 °F 28.4 °F 93% 30.34 in 2.0 mi West 34.5 mph 50.6 mph N/A Snow Light Snow
10:50 PM 30.2 °F 14.9 °F 28.4 °F 93% 30.34 in 10.0 mi West 31.1 mph 50.6 mph N/A   Overcast
11:10 PM 30.2 °F 14.7 °F 28.4 °F 93% 30.34 in 10.0 mi West 32.2 mph 43.7 mph N/A Snow Light Snow
11:30 PM 30.2 °F 13.9 °F 28.4 °F 93% 30.34 in 1.0 mi West 36.8 mph 42.6 mph N/A Snow Light Snow
11:50 PM 30.2 °F 13.9 °F 28.4 °F 93% 30.34 in 0.8 mi West 36.8 mph 44.9 mph N/A Snow Light Snow